Regional Weather Roundup
Issued by NWS Kansas City/Pleasant Hill, MO

Home | Current Version | Previous Version | Graphics & Text | Print | Product List | Glossary Off
Versions: 1 2 3 4 5 6 7 8 9 10 11 12 13 14 15 16 17 18 19 20 21 22 23 24 25 26 27 28 29 30 31 32 33 34 35 36 37 38 39 40 41 42 43 44 45 46 47 48 49 50

000
ASUS43 KEAX 190711
RWREAX

WEATHER ROUNDUP FOR EASTERN KANSAS AND NORTHWEST MISSOURI
NATIONAL WEATHER SERVICE KANSAS CITY/PLEASANT HILL MO
200 AM CDT FRI SEP 19 2014

KSZ040-057-103>105-MOZ028-029-037-043-190800-
...KANSAS CITY METROPOLITAN AREA...

CITY           SKY/WX    TMP DP  RH WIND       PRES   REMARKS
K.C. INTL      CLEAR     60  59  96 SE7       30.02S
K.C. DOWNTOWN  CLEAR     62  60  93 E5        30.02S
LEES SUMMIT    CLOUDY    62  61  96 SE6       30.04R
OLATHE - IXD   CLEAR     61  60  97 S6        30.02F
OLATHE - OJC   CLEAR     61  60  97 SE7       30.01F
LAWRENCE       CLEAR     58  57  97 E6        30.01S FOG

$$

MOZ001>008-011>017-020>025-030>033-038>040-044>046-053-054-190800-
...NORTHERN AND CENTRAL MISSOURI...

CITY           SKY/WX    TMP DP  RH WIND       PRES   REMARKS
ST. JOSEPH     CLEAR     60  59  96 SE6       30.02S
MOSBY          FOG       57  57 100 CALM      30.03R VSB 1/2
WHITEMAN AFB   CLEAR     59  58  98 SE3       30.04R
CLINTON        CLEAR     61  61 100 CALM      30.04S
SEDALIA        FOG       60  59  96 SE6       30.06R VSB<1/4
WARSAW         NOT AVBL
MARSHALL       CLEAR     61  61 100 E5        30.05S FOG
CHILLICOTHE      N/A     61  57  87 VRB3      30.06S
MOBERLY        MOCLDY    59  54  82 SE5       30.08
KIRKSVILLE     CLEAR     55  51  86 SE6       30.07F

$$

MOZ041-047>049-056>058-063>065-088>090-097-190800-
...EASTERN AND SOUTHERN MISSOURI...

CITY           SKY/WX    TMP DP  RH WIND       PRES   REMARKS
ST. LOUIS INTL CLEAR     61  54  77 E3        30.09R
SPIRIT OF STL  FOG       52  52 100 CALM      30.07S VSB 3/4
COLUMBIA       MOCLDY    60  57  89 E6          N/A
JEFFERSON CITY MOCLDY    59  57  93 CALM      30.07R
MEXICO         MOCLDY   N/A N/A N/A CALM      30.09R
HANNIBAL       CLEAR     59  55  88 E3        30.08F
ROLLA          CLEAR     57  56  96 E6        30.06S FOG
LEBANON        FOG       57  55  94 CALM      30.07S VSB 3/4
OSAGE BEACH    CLOUDY    57  54  88 CALM      30.06S VSB 1/4
SPRINGFIELD    CLOUDY    62  60  93 SE8       30.04S
BRANSON        CLOUDY    64  63  94 CALM      30.06S FOG
NEVADA         CLEAR     61  59  94 SE6       30.03S
JOPLIN         PTCLDY    63  61  93 SE7       30.02S
WEST PLAINS    FOG       55  53  93 CALM      30.07S VSB 1/4

$$

IAZ060-094-KSZ022-034>040-054-083-096-NEZ052-066-093-190800-
...KANSAS...SOUTHEAST NEBRASKA AND IOWA...

CITY           SKY/WX    TMP DP  RH WIND       PRES   REMARKS
TOPEKA         CLEAR     63  62  97 SE6       30.00F
MANHATTAN      PTCLDY    65  63  93 SE3       29.98S
EMPORIA        CLEAR     63  62  97 SE9       30.00R
CHANUTE        CLEAR     65  63  93 SE7       30.00S
WICHITA        CLEAR     66  62  87 SE7       29.97F
OMAHA          CLEAR     61  57  87 SE10      29.99S
LINCOLN        CLOUDY    64  59  83 S13       29.97F
FALLS CITY     MOCLDY    58  57  97 SE3       30.00S FOG
LAMONI         CLEAR     58  55  90 SE8       30.04S
DES MOINES     PTCLDY    60  55  83 SE9       30.04S

$$




USA.gov is the U.S. government's official web portal to all federal, state and local government web resources and services.